Regional Weather Roundup
Issued by NWS

Home | Current Version | Previous Version | Text Only | Print | Product List | Glossary On
Versions: 1 2 3 4 5 6 7 8 9 10 11 12 13 14 15 16 17 18 19 20 21 22 23 24 25 26 27 28 29 30 31 32 33 34 35 36 37 38 39 40 41 42 43 44 45 46 47 48 49 50
353
ASUS43 KDMX 291203
RWRIA

WEATHER ROUNDUP FOR IOWA
NATIONAL WEATHER SERVICE DES MOINES IA
700 AM CDT SUN MAY 29 2016

NOTE: "FAIR" INDICATES FEW OR NO CLOUDS BELOW 12,000 FEET WITH NO
SIGNIFICANT WEATHER AND/OR OBSTRUCTIONS TO VISIBILITY.

* - THESE STATIONS ARE NOT NWS STATIONS...THUS NOT UNDER NWS
QUALITY CONTROL.  THEY ALSO DO NOT REPORT WEATHER SUCH
AS PRECIPITATION OR FOG.

IAZ001>003-012>014-020>022-031>034-043>046-291300-
   NORTHWEST IOWA

CITY           SKY/WX    TMP DP  RH WIND       PRES   REMARKS
CARROLL *      SUNNY     59  57  94 W8        30.03R
CHEROKEE *     MOSUNNY   55  55 100 CALM      30.02R
DENISON *      SUNNY     55  55 100 SW3       30.03R
LE MARS *      MOSUNNY   57  57 100 S5        30.03S
ORANGE CITY *  SUNNY     57  57 100 CALM      30.02R FOG
SHELDON *      SUNNY     57  57 100 SW6       30.00R FOG
SIOUX CITY     CLOUDY    57  56  96 CALM      30.04R
6HR MIN TEMP:  53; 6HR MAX TEMP:  60;

SPENCER        MOSUNNY   59  56  89 W10       30.01R
6HR MIN TEMP:  56; 6HR MAX TEMP:  60;

STORM LAKE *   SUNNY     57  57 100 W7        30.03S
$$

IAZ055>058-069>071-079>083-090>094-291300-
   SOUTHWEST IOWA

CITY           SKY/WX    TMP DP  RH WIND       PRES   REMARKS
ATLANTIC *     SUNNY     55  54  94 S5        30.06R
AUDUBON *      SUNNY     55  54  94 W3        30.05R
CLARINDA *       N/A     57  55  94 MISG      30.08R
COUNCIL BLFS * SUNNY     55  55 100 S3        30.06R
CRESTON *      SUNNY     57  55  94 W6        30.06R
HARLAN  *      SUNNY     55  55 100 SW3       30.09R
LAMONI         SUNNY     59  56  89 W5        30.06R
6HR MIN TEMP:  56; 6HR MAX TEMP:  62;

RED OAK *      MOSUNNY   55  55 100 CALM      30.06S
SHENANDOAH *   MOSUNNY   57  57 100 CALM      30.07R
$$

IAZ047>049-059>061-072>074-084-291300-
   CENTRAL IOWA

CITY           SKY/WX    TMP DP  RH WIND       PRES   REMARKS
AMES           SUNNY     60  59  96 W9        30.02R
6HR MIN TEMP:  58; 6HR MAX TEMP:  63;

ANKENY *       SUNNY     61  61 100 MISG      30.02R
BOONE *        MOSUNNY   59  59 100 W8        30.01R
CHARITON *     SUNNY     59  57  94 W6        30.04R
DES MOINES     MOSUNNY   60  56  86 W5        30.03R
6HR MIN TEMP:  58; 6HR MAX TEMP:  64;

GRINNELL*      SUNNY     60  58  92 W6        30.02R
KNOXVILLE *    SUNNY     61  57  88 W8        30.02R
MARSHALLTOWN   MOSUNNY   61  60  97 W9        30.00R
6HR MIN TEMP:  60; 6HR MAX TEMP:  63;

NEWTON *       SUNNY     61  61 100 W9        30.02R
PERRY *          N/A     59  58  96 W7        30.04R
$$

IAZ004>006-015-016-023>025-035-036-291300-
   NORTH CENTRAL IOWA

CITY           SKY/WX    TMP DP  RH WIND       PRES   REMARKS
ALGONA *       SUNNY     59  59 100 W10       29.98S FOG
CLARION *      SUNNY     59  59 100 W8        29.99R
ESTHERVILLE    PTSUNNY   59  57  93 W12       29.98R
6HR MIN TEMP:  57; 6HR MAX TEMP:  60;

FORT DODGE *   PTSUNNY   59  55  88 SW8       30.02R
MASON CITY     MOSUNNY   60  59  96 W10       29.97R
6HR MIN TEMP:  59; 6HR MAX TEMP:  62;

FOREST CITY *  SUNNY     59  59 100 W5        29.97R
WEBSTER CITY * SUNNY     61  61 100 W13       29.99R
IOWA FALLS *     N/A     61  59  94 W8        30.00R
$$

IAZ007>011-017>019-026>030-037>042-050>054-066-291300-
   NORTHEAST IOWA

CITY           SKY/WX    TMP DP  RH WIND       PRES   REMARKS
CEDAR RAPIDS   MOSUNNY   62  61  96 W12       29.98R
6HR MIN TEMP:  60; 6HR MAX TEMP:  65;

CHARLES CITY * MOSUNNY   61  61 100 W8        29.96R
CLINTON *      SUNNY     65  60  84 W14       29.98R
DECORAH *      CLOUDY    61  61 100 VRB5G12   29.93R
DUBUQUE        CLOUDY    62  59  90 W14       29.95R
6HR MIN TEMP:  61; 6HR MAX TEMP:  63;

MONTICELLO *   PTSUNNY   63  61  94 W10       29.96R
OELWEIN *      MOSUNNY   63  63 100 W13       29.97R
WATERLOO       SUNNY     63  59  87 W6        29.96R
6HR MIN TEMP:  62; 6HR MAX TEMP:  64;

$$

IAZ064-065-067-068-078-291300-
   EAST CENTRAL IOWA

CITY           SKY/WX    TMP DP  RH WIND       PRES   REMARKS
DAVENPORT      MOSUNNY   64  58  80 W12       29.99R
6HR MIN TEMP:  64; 6HR MAX TEMP:  67;

IOWA CITY      CLOUDY    64  59  83 W12       30.01R
6HR MIN TEMP:  62; 6HR MAX TEMP:  67;

MT. PLEASANT * SUNNY     66  61  82 W9        30.01S
MUSCATINE *    SUNNY     64  59  82 W10G17    30.00R
QUAD CITIES    SUNNY     67  58  72 SW10      29.98R
6HR MIN TEMP:  66; 6HR MAX TEMP:  69;

$$

IAZ062-063-075>077-085>089-095>099-291300-
   SOUTHEAST IOWA

CITY           SKY/WX    TMP DP  RH WIND       PRES   REMARKS
BURLINGTON     SUNNY     64  60  87 W6        30.01R
6HR MIN TEMP:  61; 6HR MAX TEMP:  67;

FAIRFIELD *      N/A    N/A N/A N/A MISG        N/A
FORT MADISON * SUNNY     64  59  82 W6        30.03R
KEOKUK *       SUNNY     64  61  88 SW7       30.02R
OSKALOOSA *      N/A     61  57  88 W7        30.03R
OTTUMWA        SUNNY     61  57  87 W7        30.03R
6HR MIN TEMP:  59; 6HR MAX TEMP:  66;

WASHINGTON *   MOSUNNY   63 N/A N/A W10       30.02R
$$

ABBREVIATIONS USED IN REMARKS
   TC - TEMPERATURES IN CELSIUS
  WCI - WIND CHILL INDEX
   HX - HEAT INDEX
  VSB - VISIBILITY
$$





USA.gov is the U.S. government's official web portal to all federal, state and local government web resources and services.